Погода в Юрьеве-Польском

Россия / Владимирская область     56°29′57″N   39°40′50″E
темп.,
°C
ветер,
м/с
пор.,
м/с
влажн.,
%
обл.,
%
осадки,
мм/ч
давл.,
гПа
погр.,
м
25 июля, вс
вс2500:00+10сз22695 0.0 101812
03:00+9з22765 0.0 101911
06:00+12ю226943 0.0 102058
09:00+15юз3457100 0.0 1020236
12:00+20зюз454274 0.0 10201354
15:00+22юз353899 0.0 10192694
18:00+19зсз475696 0.0 1020254
21:00+15зсз115854 0.0 102111
26 июля, пн
пн2600:00+16ююз2253100 0.0 102225
03:00+16зюз3657100 0.0 1022137
06:00+16з246095 0.0 102292
09:00+21з34475 0.0 1022644
12:00+21з4547100 0.0 1023774
15:00+24з364014 0.0 10212059
18:00+21зюз375325 0.0 1021181
21:00+19зюз345998 0.0 102177
27 июля, вт
вт2700:00+18зюз366298 0.0 1021117
03:00+15зсз34795 0.0 102154
06:00+16ссз24735 0.0 1022108
09:00+22сз22515 0.0 1021425
12:00+26зсз343921 0.0 10202253
15:00+26зсз344026 0.0 10191472
18:00+24с234574 0.0 101873
21:00+20в3659100 0.0 101898
28 июля, ср
ср2800:00+16ю227546 0.0 101822
03:00+15ююв348575 0.3 101841
06:00+16ссз11812 0.1 101751
09:00+22ююз12590 0.1 1016429
12:00+27юз344437 0.0 10141635
15:00+28зюз3537100 0.0 10122551
18:00+19всв1187100 2.9 101226
21:00+17зюз4891100 5.1 1012256
29 июля, чт
чт2900:00+16ю51094100 0.3 1010320
03:00+16юв4798100 2.4 1007274
06:00+16ююв3698100 0.3 1006325
09:00+17ююз2597100 1.9 1005360
12:00+18з4795100 0.8 1005473
15:00+18зсз589575 1.9 1005551
18:00+20зсз6119017 1.3 1005698
21:00+17з34940 1.7 100572